• In Kazakhstan
  • List of Countries
  • For 7 days
  • Water Temperature
  • Weather Map
  • News
  • Weather Widgets
  • user-avatar
    Login

    Hourly Weather Barra

    Today, 16 October, Wednesday

    Time Temperature Precipitation Wind Pressure Humidity
    00:00 +20°C° 0 mm 2 mps 748 mmHg 90%
    01:00 +19°C° 0 mm 2 mps 748 mmHg 91%
    02:00 +19°C° 0 mm 2 mps 748 mmHg 92%
    03:00 +19°C° 0 mm 2 mps 748 mmHg 92%
    04:00 +19°C° 0 mm 2 mps 748 mmHg 92%
    05:00 +20°C° 0 mm 2 mps 748 mmHg 88%
    06:00 +20°C° 0 mm 2 mps 749 mmHg 83%
    07:00 +21°C° 0 mm 2 mps 749 mmHg 79%
    08:00 +25°C° 0 mm 3 mps 749 mmHg 66%
    09:00 +29°C° 0 mm 3 mps 750 mmHg 53%
    10:00 +33°C° 0 mm 3 mps 750 mmHg 40%
    11:00 +33°C° 0 mm 3 mps 749 mmHg 44%
    12:00 +32°C° 0 mm 4 mps 748 mmHg 48%
    13:00 +32°C° 0 mm 4 mps 748 mmHg 52%
    14:00 +30°C° 0 mm 4 mps 747 mmHg 56%
    15:00 +29°C° 0 mm 4 mps 747 mmHg 60%
    16:00 +29°C° 0 mm 4 mps 747 mmHg 63%
    17:00 +27°C° 0 mm 4 mps 748 mmHg 71%
    18:00 +25°C° 0 mm 3 mps 748 mmHg 78%
    19:00 +24°C° 0 mm 3 mps 749 mmHg 86%
    20:00 +22°C° 0 mm 3 mps 749 mmHg 88%
    21:00 +23°C° 0 mm 2 mps 749 mmHg 91%
    22:00 +21°C° 0 mm 2 mps 750 mmHg 93%
    23:00 +21°C° 0 mm 2 mps 749 mmHg 93%

    Tomorrow, 17 October, Thursday

    Time Temperature Precipitation Wind Pressure Humidity
    00:00 +21°C° 0 mm 2 mps 749 mmHg 93%
    01:00 +21°C° 0 mm 2 mps 749 mmHg 92%
    02:00 +21°C° 0 mm 2 mps 749 mmHg 93%
    03:00 +20°C° 0 mm 2 mps 749 mmHg 94%
    04:00 +20°C° 0 mm 2 mps 749 mmHg 95%
    05:00 +21°C° 0 mm 2 mps 749 mmHg 91%
    06:00 +21°C° 0 mm 2 mps 750 mmHg 88%
    07:00 +23°C° 0 mm 2 mps 750 mmHg 85%
    08:00 +25°C° 0 mm 2 mps 750 mmHg 74%
    09:00 +27°C° 0 mm 2 mps 750 mmHg 64%
    10:00 +30°C° 0 mm 3 mps 751 mmHg 54%
    11:00 +30°C° 0 mm 3 mps 750 mmHg 53%
    12:00 +30°C° 0 mm 4 mps 749 mmHg 53%
    13:00 +32°C° 0 mm 4 mps 749 mmHg 52%
    14:00 +30°C° 0 mm 4 mps 748 mmHg 55%
    15:00 +29°C° 0 mm 4 mps 748 mmHg 59%
    16:00 +28°C° 0 mm 4 mps 748 mmHg 62%
    17:00 +27°C° 0 mm 4 mps 748 mmHg 69%
    18:00 +25°C° 0 mm 3 mps 749 mmHg 77%
    19:00 +24°C° 0 mm 3 mps 749 mmHg 85%
    20:00 +24°C° 0 mm 3 mps 750 mmHg 86%
    21:00 +23°C° 0 mm 2 mps 750 mmHg 87%
    22:00 +23°C° 0 mm 2 mps 750 mmHg 89%
    23:00 +23°C° 0 mm 2 mps 750 mmHg 90%

    Day after tomorrow, 18 October, Friday

    Time Temperature Precipitation Wind Pressure Humidity
    00:00 +21°C° 0 mm 3 mps 749 mmHg 92%
    01:00 +21°C° 0 mm 3 mps 749 mmHg 94%
    02:00 +21°C° 0 mm 3 mps 749 mmHg 94%
    03:00 +21°C° 0 mm 2 mps 749 mmHg 94%
    04:00 +21°C° 0 mm 2 mps 749 mmHg 94%
    05:00 +21°C° 0 mm 2 mps 750 mmHg 91%
    06:00 +23°C° 0 mm 1 mps 750 mmHg 89%
    07:00 +23°C° 0 mm 1 mps 751 mmHg 86%
    08:00 +25°C° 0 mm 1 mps 751 mmHg 77%
    09:00 +28°C° 0 mm 2 mps 751 mmHg 67%
    10:00 +30°C° 0 mm 2 mps 752 mmHg 57%
    11:00 +30°C° 0 mm 2 mps 751 mmHg 55%
    12:00 +30°C° 0 mm 3 mps 750 mmHg 53%
    13:00 +31°C° 0 mm 3 mps 750 mmHg 51%
    14:00 +30°C° 0 mm 3 mps 749 mmHg 53%
    15:00 +30°C° 0 mm 3 mps 749 mmHg 55%
    16:00 +29°C° 0 mm 3 mps 748 mmHg 58%
    17:00 +27°C° 0 mm 3 mps 749 mmHg 66%
    18:00 +25°C° 0 mm 3 mps 749 mmHg 74%
    19:00 +24°C° 0 mm 3 mps 750 mmHg 82%
    20:00 +23°C° 0 mm 2 mps 750 mmHg 85%
    21:00 +23°C° 0 mm 2 mps 750 mmHg 87%
    22:00 +21°C° 0 mm 2 mps 751 mmHg 90%
    23:00 +21°C° 0 mm 2 mps 750 mmHg 91%

    19 October, Saturday

    Time Temperature Precipitation Wind Pressure Humidity
    00:00 +21°C° 0 mm 2 mps 750 mmHg 92%
    01:00 +20°C° 0 mm 2 mps 750 mmHg 93%
    02:00 +20°C° 0 mm 2 mps 750 mmHg 93%
    03:00 +20°C° 0 mm 2 mps 750 mmHg 94%
    04:00 +21°C° 0 mm 1 mps 750 mmHg 94%
    05:00 +21°C° 0 mm 1 mps 750 mmHg 90%
    06:00 +22°C° 0 mm 1 mps 751 mmHg 87%
    07:00 +23°C° 0 mm 1 mps 751 mmHg 83%
    08:00 +26°C° 0 mm 1 mps 751 mmHg 71%
    09:00 +28°C° 0 mm 1 mps 752 mmHg 59%
    10:00 +31°C° 0 mm 1 mps 752 mmHg 47%
    11:00 +31°C° 0 mm 2 mps 751 mmHg 47%
    12:00 +32°C° 0 mm 2 mps 750 mmHg 47%
    13:00 +33°C° 0 mm 3 mps 749 mmHg 47%
    14:00 +31°C° 0 mm 3 mps 749 mmHg 50%
    15:00 +30°C° 0 mm 4 mps 748 mmHg 53%
    16:00 +29°C° 0 mm 4 mps 748 mmHg 57%
    17:00 +28°C° 0 mm 3 mps 748 mmHg 65%
    18:00 +26°C° 0 mm 3 mps 749 mmHg 74%
    19:00 +24°C° 0 mm 2 mps 749 mmHg 83%
    20:00 +23°C° 0 mm 2 mps 750 mmHg 87%
    21:00 +23°C° 0 mm 2 mps 750 mmHg 90%
    22:00 +21°C° 0 mm 2 mps 751 mmHg 93%
    23:00 +21°C° 0 mm 2 mps 750 mmHg 94%

    20 October, Sunday

    Time Temperature Precipitation Wind Pressure Humidity
    00:00 +21°C° 0 mm 1 mps 750 mmHg 94%
    01:00 +21°C° 0 mm 1 mps 750 mmHg 95%
    02:00 +21°C° 0 mm 1 mps 750 mmHg 95%
    03:00 +21°C° 0 mm 1 mps 750 mmHg 95%
    04:00 +20°C° 0 mm 1 mps 750 mmHg 96%
    05:00 +21°C° 0 mm 1 mps 750 mmHg 92%
    06:00 +22°C° 0 mm 1 mps 750 mmHg 87%
    07:00 +23°C° 0 mm 1 mps 751 mmHg 83%
    08:00 +25°C° 0 mm 1 mps 751 mmHg 72%
    09:00 +28°C° 0 mm 1 mps 751 mmHg 61%
    10:00 +30°C° 0 mm 1 mps 751 mmHg 50%
    11:00 +31°C° 0 mm 2 mps 750 mmHg 51%
    12:00 +31°C° 0 mm 3 mps 749 mmHg 52%
    13:00 +31°C° 0 mm 3 mps 749 mmHg 53%
    14:00 +30°C° 0 mm 3 mps 749 mmHg 55%
    15:00 +29°C° 0 mm 3 mps 748 mmHg 57%
    16:00 +29°C° 0 mm 3 mps 748 mmHg 59%
    17:00 +27°C° 0 mm 3 mps 748 mmHg 66%
    18:00 +25°C° 0 mm 2 mps 749 mmHg 74%
    19:00 +23°C° 0 mm 2 mps 749 mmHg 81%
    20:00 +23°C° 0 mm 1 mps 750 mmHg 83%
    21:00 +22°C° 0 mm 1 mps 750 mmHg 85%
    22:00 +22°C° 0 mm 1 mps 751 mmHg 87%
    23:00 +22°C° 0 mm 1 mps 750 mmHg 88%

    21 October, Monday

    Time Temperature Precipitation Wind Pressure Humidity
    00:00 +19°C° 0 mm 0 mps 750 mmHg 90%
    01:00 +19°C° 0 mm 0 mps 750 mmHg 91%
    02:00 +19°C° 0 mm 0 mps 750 mmHg 91%
    03:00 +21°C° 0 mm 1 mps 750 mmHg 92%
    04:00 +21°C° 0 mm 1 mps 750 mmHg 92%
    05:00 +22°C° 0 mm 1 mps 750 mmHg 88%
    06:00 +23°C° 0 mm 1 mps 751 mmHg 84%
    07:00 +23°C° 0 mm 1 mps 751 mmHg 80%
    08:00 +25°C° 0 mm 2 mps 751 mmHg 71%
    09:00 +27°C° 0 mm 2 mps 751 mmHg 62%
    10:00 +29°C° 0 mm 3 mps 751 mmHg 54%
    11:00 +30°C° 0 mm 3 mps 750 mmHg 54%
    12:00 +30°C° 0 mm 4 mps 750 mmHg 54%
    13:00 +30°C° 0 mm 4 mps 750 mmHg 53%
    14:00 +29°C° 0 mm 4 mps 749 mmHg 55%
    15:00 +29°C° 0 mm 4 mps 749 mmHg 57%
    16:00 +28°C° 0 mm 4 mps 749 mmHg 59%
    17:00 +27°C° 0 mm 4 mps 750 mmHg 67%
    18:00 +25°C° 0 mm 4 mps 750 mmHg 75%
    19:00 +23°C° 0 mm 4 mps 750 mmHg 83%
    20:00 +22°C° 0 mm 4 mps 751 mmHg 85%
    21:00 +22°C° 0 mm 4 mps 751 mmHg 86%
    22:00 +22°C° 0 mm 4 mps 751 mmHg 88%
    23:00 +22°C° 0.1 mm 5 mps 751 mmHg 87%
    Show more